Regional Weather Roundup
Issued by NWS Charleston, SC

Current Version | Previous Version | Graphics & Text | Print | Product List | Glossary On
Versions: 1 2 3 4 5 6 7 8 9 10 11 12 13 14 15 16 17 18 19 20 21 22 23 24 25 26 27 28 29 30 31 32 33 34 35 36 37 38 39 40 41 42 43 44 45 46 47 48 49 50
000 ASUS42 KCHS 291528 RWRCHS REGIONAL WEATHER ROUNDUP NATIONAL WEATHER SERVICE CHARLESTON SC 1100 AM EDT THU SEP 29 2016 NOTE: "FAIR" INDICATES FEW OR NO CLOUDS BELOW 12,000 FEET WITH NO SIGNIFICANT WEATHER AND/OR OBSTRUCTIONS TO VISIBILITY. NOT ALL STATIONS ARE QUALITY CONTROLLED. USE DATA WITH CAUTION... ESPECIALLY DEWPOINT OBSERVATIONS. SCZ027-030-031-034>040-042>050-291600- ...SOUTHEAST SOUTH CAROLINA... CITY SKY/WX TMP DP RH WIND PRES REMARKS N CHARLESTON MOSUNNY 83 73 72 S7 29.97F WATERFRONT PRK N/A 81 76 85 SW5 29.96R MOUNT PLEASANT FAIR 84 75 74 S9 29.98S HX 92 JOHNS ISLAND FAIR 84 75 74 S8 29.98S HX 92 PINOPOLIS N/A 81 75 83 VRB2 29.90S MONCKS CORNER CLOUDY 82 73 74 S6 29.98R SUMMERVILLE FAIR 82 73 74 SE3 29.98S BEAUFORT MCAS MOSUNNY 82 72 71 SW6 29.99R BEAUFORT ARPT FAIR 81 72 74 S6 29.99R HILTON HEAD IS MOSUNNY 86 72 62 SW7 30.00F HX 92 WALTERBORO PTSUNNY 84 70 61 SW6 29.99S ALLENDALE PTSUNNY 79 70 73 SW3 29.99R ...SOUTHERN MIDLANDS AND PEE DEE... CITY SKY/WX TMP DP RH WIND PRES REMARKS GEORGETOWN PTSUNNY 79 73 83 S9G16 29.99R KINGSTREE FAIR 82 70 65 S3 29.97S ORANGEBURG PTSUNNY 78 69 73 SW3 29.98R BARNWELL NOT AVBL AIKEN FAIR 79 61 53 W6 30.01R MANNING PTSUNNY 79 72 78 SW8 29.97S COLUMBIA MOSUNNY 80 66 62 SE3 29.95S SUMTER PTSUNNY 81 67 63 W5 29.94S FLORENCE CLOUDY 76 70 82 E10 29.98S MYRTLE BEACH LGT RAIN 77 66 69 SW8 30.00R N MYRTLE BEACH CLOUDY 82 72 71 S15 29.98R $$ GAZ063-065-086>088-099>101-113>116-118-119-134>141-150-291600- ...SOUTHEAST GEORGIA... CITY SKY/WX TMP DP RH WIND PRES REMARKS SAVANNAH ARPT MOSUNNY 84 69 60 CALM 29.99R HUNTER AAF SUNNY 83 76 80 VRB1 29.97R HX 91 FORT STEWART PTSUNNY 81 70 69 VRB1 29.98R STATESBORO PTSUNNY 82 67 60 CALM 30.00R SYLVANIA NOT AVBL CLAXTON FAIR 85 65 51 CALM 30.00R ...CSRA...CENTRAL AND FAR SOUTHEAST GEORGIA... CITY SKY/WX TMP DP RH WIND PRES REMARKS THOMSON SUNNY 84 54 35 SW6 30.01S AUGUSTA-BUSH SUNNY 80 56 43 SW3 29.97R AUGUSTA-DANIEL SUNNY 80 53 39 VRB3 29.99R SWAINSBORO FAIR 82 54 36 SW3 30.01S VIDALIA PTSUNNY 82 66 57 NW3 30.01R EASTMAN FAIR 83 52 34 SW5 30.02S HAZLEHURST CLOUDY 84 67 56 N5 30.00R ALMA CLOUDY 81 72 74 W3 30.01R WAYCROSS CLOUDY 85 75 72 S5 30.01S HX 93 JESUP CLOUDY 82 77 83 W5 30.01S HX 91 BAXLEY PTSUNNY 82 73 74 W5 30.01R BRUNSWICK MOSUNNY 84 73 70 S3 30.01S HX 91 SAINT SIMONS SUNNY 81 73 76 W7 30.00S $$ SCZ027-028-034-036>038-045-046-048>050-GAZ119-141-291600- ...LAKE AND SUPPLEMENTAL COASTAL OBSERVATIONS... STATION/POSITION TIME TEMP WIND PRES WAVE SWELL AIR SEA DIR/SP/G HT/PER HT/PER/DIR (UTC) (F) (DEG/KT/KT) (MB) (FT/S) (FT/S/D) WINYAH BAY 1445 78 170/ 12 1014.0S LAKE MURRAY 1430 76 220/ 4/ 6 1014.2R ACE BASIN NERRS 1445 82 240/ 1 1015.0S FORT PULASKI 1500 80 81 220/ 3/ 5 1016.0 SAPELO ISLAND 1500 81 240/ 2 1016.0 $$ ANZ835-935-AMZ111-154-330-350-352-354-370-450-454-472-291600- ...C-MAN AND BUOY OBSERVATIONS... STATION/POSITION TIME TEMP WIND PRES WAVE SWELL AIR SEA DIR/SP/G HT/PER HT/PER/DIR (UTC) (F) (DEG/KT/KT) (MB) (FT/S) (FT/S/D) BUOY 41004 1450 78 82 140/ 16/ 17 1015.4R 3/ 5 2/110/11 BUOY 41008 1450 78 82 250/ 10/ 12 1015.5R 3/ 5 2/ 30/12 FOLLY BEACH CMAN 1500 80 220/ 9/ 11 1015.4S CAPERS NEARSHORE 1508 80 81 220/ 10/ 14 1015.4R FRIPP NEARSHORE 1508 83 81 230/ 10/ 14 1015.7R STATION/POSITION TIME TEMP WIND PRES WAVE SWELL AIR SEA DIR/SP/G HT/PER HT/PER/DIR (UTC) (F) (DEG/KT/KT) (MB) (FT/S) (FT/S/D) 5E ST. MARYS GA 1501 82 N/A 2/12 2/110/12 FRYING PAN BUOY 1510 81 82 160/ 16/ 17 1015.8 BUOY 41025 1450 79 83 20/ 8/ 10 1016.7R 3/11 3/110/11 CAPE LOOKOUT NC 1500 79 80/ 9/ 9 1016.1F BUOY 41002 1450 81 83 150/ 8/ 8 1017.9R 3/ 5 3/180/ 5 BUOY 41010 NOT AVBL ST AUGUSTINE FL 1400 80 83 230/ 6/ 8 1017.4R $$

USA.gov is the U.S. government's official web portal to all federal, state and local government web resources and services.